sat.trackr.live / text

‹ back to catalog

STARLINK-2109

NORAD 47388 · 2021-005AR

PAYLOAD ACTIVE UNKNOWN

§ Identity

Operator
Country
US
Launch date
2021-01-20
Launch site
AFETR
Launch vehicle
Mass (kg)
RCS (m²)

Purposes: comms

External: N2YO · Heavens-Above · Gunter

§ Orbital elements

Epoch: 2026-05-25T04:30:20.467296Z

Period
94.01 min
Inclination
53.1615°
Eccentricity
0.0001205
Mean motion
15.31721241 rev/d
Perigee alt
469.9 km
Apogee alt
471.5 km
Semi-major
6,848.8 km
B*
1.8809e-4
RAAN
70.4861°
Arg perigee
90.1421°
Mean anomaly
269.9718°
Rev number
29,468

§ Raw data

STARLINK-21091 47388U 21005AR  26145.18773689  .00005480  00000+0  18809-3 0  99902 47388  53.1615  70.4861 0001205  90.1421 269.9718 15.31721241294682

JSON: /api/v1/satellites/47388 · /tle

For live sub-satellite position, see the globe view (requires WebGL).

§ Visibility from observer

Set your observer location to see the next 7 days of passes ≥ 10°. The values pass through the URL so the page stays shareable.

No JS? Fill the form by hand. The geolocation button needs JavaScript.